This is the latest recevied weather packets stored in our database for station/object EA1L-13. If no packets are shown the sender has not sent any weather packets the latest 10 day(s).
| Time | Temp. | Humidity | Pressure | Rain* | Wind** | Luminosity | Snow |
|---|---|---|---|---|---|---|---|
| 1777810504 | 14.44° C | 100% | 1010.1 hPa | 0 mm | - | - | - |
| 1777809604 | 15° C | 100% | 1010.1 hPa | 0 mm | - | - | - |
| 1777808705 | 15.56° C | 100% | 1010.2 hPa | 0 mm | - | - | - |
| 1777807805 | 16.11° C | 100% | 1010.5 hPa | 0 mm | - | - | - |
| 1777806904 | 16.67° C | 100% | 1010.6 hPa | 0 mm | - | - | - |
| 1777806005 | 16.67° C | 100% | 1010.6 hPa | 0 mm | - | - | - |
| 1777805104 | 17.22° C | 100% | 1010.7 hPa | 0 mm | - | - | - |
| 1777804204 | 17.22° C | 100% | 1010.7 hPa | 0 mm | - | - | - |
| 1777803304 | 17.22° C | 100% | 1010.8 hPa | 0 mm | - | - | - |
| 1777802404 | 17.22° C | 100% | 1010.8 hPa | 0 mm | - | - | - |
| 1777801504 | 16.67° C | 100% | 1010.8 hPa | 0 mm | - | - | - |
| 1777800605 | 16.11° C | 100% | 1011 hPa | 0 mm | - | - | - |
| 1777799704 | 16.11° C | 100% | 1011.1 hPa | 0 mm | - | - | - |
| 1777798804 | 16.11° C | 100% | 1010.9 hPa | 0 mm | - | - | - |
| 1777797905 | 15.56° C | 100% | 1010.9 hPa | 0 mm | - | - | - |
| 1777797004 | 15.56° C | 100% | 1011 hPa | 0 mm | - | - | - |
| 1777796104 | 15.56° C | 100% | 1010.8 hPa | 0 mm | - | - | - |
| 1777795204 | 15° C | 100% | 1010.9 hPa | 0 mm | - | - | - |
| 1777794304 | 15° C | 100% | 1010.8 hPa | 0 mm | - | - | - |
| 1777793404 | 15° C | 100% | 1010.8 hPa | 0 mm | - | - | - |
| 1777792504 | 15° C | 100% | 1010.8 hPa | 0 mm | - | - | - |
| 1777791604 | 14.44° C | 100% | 1010.8 hPa | 0 mm | - | - | - |
| 1777790704 | 13.33° C | 100% | 1010.7 hPa | 0.25 mm | - | - | - |
| 1777789805 | 13.33° C | 100% | 1010.5 hPa | 0.25 mm | - | - | - |
| 1777788904 | 13.33° C | 100% | 1010.4 hPa | 0.25 mm | - | - | - |
* Rain latest hour (hover to see other rain measurements)
** Current wind speed in m/s (hover to see current wind gust speed)